Home   Weather   Fatehpur   Past weeks

Flag for India Past Weather in Fatehpur, Uttar Pradesh, India — Yesterday and Last 2 Weeks

68 °F


Feels Like: 68 °F
Forecast: 71 / 90 °F
Wind: No wind

Location: Lucknow / Amausi

Current Time: Oct 24, 2016 at 7:21:42 AM

Latest Report: Oct 24, 2016 at 6:30 AM

Visibility: 1 mi

Pressure: 29.74 "Hg

Humidity: 78%

Dew Point: 61 °F

Location of FatehpurLocation

Past Weather in Fatehpur — Graph


Fatehpur Temperature Yesterday

Maximum temperature yesterday: 91 °F (at 2:00 PM)
Minimum temperature yesterday: 70 °F (at 5:00 AM)
Average temperature yesterday: 80 °F

High & Low Weather Summary for the Past Weeks

High95 °F (Oct 10, 2:30 PM)100% (Oct 9, 5:30 AM)29.89 "Hg (Oct 9, 5:30 AM)
Low66 °F (Oct 14, 5:30 AM)30% (Oct 14, 1:00 PM)29.62 "Hg (Oct 9, 3:00 PM)
Average81 °F63%29.75 "Hg
* Reported Oct 9 5:30 AM — Oct 24 6:00 AM, Fatehpur, Weather by CustomWeather, © 2016

Note: Actual official high and low records may vary slightly from our data, if they occured in-between our weather recording intervals... More about our weather records


Fatehpur Weather History for the Previous 24 Hours

Scroll right to see more
Time TempWeatherWind HumidityBarometerVisibility
6:00 AM
Mon, Oct 24
68 °FHaze.No wind73%29.74 "Hg1 mi
5:30 AM68 °FHaze.No wind73%29.74 "Hg1 mi
5:00 AM70 °FHaze.No wind69%29.71 "Hg1 mi
4:00 AM70 °FHaze.No wind69%29.71 "Hg2 mi
3:00 AM70 °FHaze.No wind69%29.71 "Hg2 mi
2:00 AM72 °FHaze.No wind61%29.71 "Hg2 mi
1:00 AM73 °FHaze.No wind61%29.74 "Hg2 mi
12:00 AM73 °FHaze.No wind53%29.74 "Hg2 mi
11:00 PM
Sun, Oct 23
75 °FHaze.No wind54%29.74 "Hg2 mi
10:00 PM77 °FHaze.No wind51%29.74 "Hg2 mi
9:00 PM77 °FHaze.No wind54%29.77 "Hg2 mi
8:30 PM77 °FHaze.2 mph57%29.77 "Hg2 mi
8:00 PM81 °FHaze.2 mph58%29.74 "Hg2 mi
7:30 PM81 °FHaze.2 mph58%29.74 "Hg2 mi
7:00 PM81 °FHaze.2 mph54%29.74 "Hg2 mi
6:30 PM82 °FHaze.3 mph51%29.71 "Hg2 mi
6:00 PM82 °FHaze.3 mph48%29.71 "Hg2 mi
5:30 PM84 °FHaze.2 mph40%29.71 "Hg2 mi
5:00 PM88 °FHaze.2 mph33%29.71 "Hg2 mi
4:30 PM90 °FHaze.2 mph38%29.71 "Hg2 mi
4:00 PM90 °FHaze.5 mph36%29.71 "Hg2 mi
3:30 PM91 °FHaze.5 mph34%29.71 "Hg2 mi
3:00 PM91 °FHaze.5 mph32%29.71 "Hg2 mi
2:30 PM91 °FHaze.7 mph32%29.71 "Hg2 mi
2:00 PM91 °FHaze.5 mph34%29.74 "Hg2 mi
1:30 PM90 °FHaze.5 mph36%29.74 "Hg2 mi
1:00 PM90 °FHaze.5 mph36%29.74 "Hg2 mi
12:30 PM90 °FHaze.5 mph36%29.77 "Hg2 mi
12:00 PM90 °FHaze.5 mph38%29.77 "Hg2 mi
11:30 AM88 °FHaze.3 mph40%29.80 "Hg2 mi
11:00 AM84 °FHaze.3 mph51%29.80 "Hg2 mi
10:30 AM84 °FHaze.3 mph48%29.80 "Hg2 mi
10:00 AM81 °FHaze.3 mph54%29.83 "Hg2 mi
9:30 AM79 °FHaze.3 mph58%29.83 "Hg2 mi
9:00 AM77 °FHaze.3 mph57%29.80 "Hg2 mi
8:30 AM75 °FHaze.No wind61%29.80 "Hg2 mi
8:00 AM73 °FHaze.No wind74%29.80 "Hg2 mi
7:30 AM72 °FHaze.No wind78%29.80 "Hg1 mi
7:00 AM72 °FHaze.No wind78%29.77 "Hg1 mi
Weather by CustomWeather, © 2016

See weather overviewHow to use our weather pages